Time,TemperatureF,DewpointF,PressureIn,WindDirection,WindDirectionDegrees,WindSpeedMPH,WindSpeedGustMPH,Humidity,HourlyPrecipIn,Conditions,Clouds,dailyrainin,SoftwareType,DateUTC
2013-11-09 00:07:00,28.9,24.0,30.35,NW,323,0.0,0.0,83,0.00,,,0.00,weatherlink.com 1.10,2013-11-09 05:07:00,
2013-11-09 00:26:00,29.2,24.0,30.35,NW,323,0.0,0.0,82,0.00,,,0.00,weatherlink.com 1.10,2013-11-09 05:26:00,
2013-11-09 00:45:00,28.9,24.0,30.35,NW,323,0.0,0.0,83,0.00,,,0.00,weatherlink.com 1.10,2013-11-09 05:45:00,
2013-11-09 01:04:00,29.0,24.0,30.35,North,10,0.0,0.0,82,0.00,,,0.00,weatherlink.com 1.10,2013-11-09 06:04:00,
2013-11-09 01:23:00,29.0,24.0,30.35,NE,56,0.0,1.0,82,0.00,,,0.00,weatherlink.com 1.10,2013-11-09 06:23:00,
2013-11-09 01:42:00,28.9,24.0,30.34,ESE,115,0.0,1.0,83,0.00,,,0.00,weatherlink.com 1.10,2013-11-09 06:42:00,
2013-11-09 02:01:00,28.8,24.0,30.34,ESE,118,0.0,1.0,82,0.00,,,0.00,weatherlink.com 1.10,2013-11-09 07:01:00,
2013-11-09 02:20:00,28.8,24.0,30.34,ESE,109,0.0,1.0,81,0.00,,,0.00,weatherlink.com 1.10,2013-11-09 07:20:00,
2013-11-09 02:39:00,29.2,24.0,30.35,ESE,103,0.0,1.0,80,0.00,,,0.00,weatherlink.com 1.10,2013-11-09 07:39:00,
2013-11-09 02:59:00,29.0,24.0,30.35,ESE,120,0.0,1.0,80,0.00,,,0.00,weatherlink.com 1.10,2013-11-09 07:59:00,
2013-11-09 03:17:00,28.6,24.0,30.34,East,97,1.0,3.0,81,0.00,,,0.00,weatherlink.com 1.10,2013-11-09 08:17:00,
2013-11-09 03:36:00,27.8,23.0,30.35,SSE,153,0.0,1.0,83,0.00,,,0.00,weatherlink.com 1.10,2013-11-09 08:36:00,
2013-11-09 03:55:00,28.1,23.0,30.35,SSE,158,0.0,2.0,82,0.00,,,0.00,weatherlink.com 1.10,2013-11-09 08:55:00,
2013-11-09 04:15:00,28.3,24.0,30.34,ESE,111,1.0,2.0,82,0.00,,,0.00,weatherlink.com 1.10,2013-11-09 09:15:00,
2013-11-09 04:33:00,28.6,24.0,30.34,SSE,164,1.0,2.0,81,0.00,,,0.00,weatherlink.com 1.10,2013-11-09 09:33:00,
2013-11-09 04:52:00,29.1,24.0,30.33,SSE,148,1.0,4.0,80,0.00,,,0.00,weatherlink.com 1.10,2013-11-09 09:52:00,
2013-11-09 05:12:00,29.7,24.0,30.32,SSE,156,1.0,3.0,79,0.00,,,0.00,weatherlink.com 1.10,2013-11-09 10:12:00,
2013-11-09 05:31:00,29.8,24.0,30.33,SSE,158,3.0,4.0,79,0.00,,,0.00,weatherlink.com 1.10,2013-11-09 10:31:00,
2013-11-09 05:50:00,29.8,24.0,30.32,South,178,3.0,4.0,79,0.00,,,0.00,weatherlink.com 1.10,2013-11-09 10:50:00,
2013-11-09 06:09:00,30.0,24.0,30.33,SSE,158,2.0,4.0,79,0.00,,,0.00,weatherlink.com 1.10,2013-11-09 11:09:00,
2013-11-09 06:28:00,30.4,25.0,30.33,SSE,159,1.0,4.0,79,0.00,,,0.00,weatherlink.com 1.10,2013-11-09 11:28:00,
2013-11-09 06:47:00,31.0,25.0,30.32,SE,146,0.0,4.0,79,0.00,,,0.00,weatherlink.com 1.10,2013-11-09 11:47:00,
2013-11-09 07:06:00,30.9,25.0,30.33,South,179,2.0,2.0,79,0.00,,,0.00,weatherlink.com 1.10,2013-11-09 12:06:00,
2013-11-09 07:25:00,31.2,25.0,30.32,South,182,2.0,4.0,79,0.00,,,0.00,weatherlink.com 1.10,2013-11-09 12:25:00,
2013-11-09 07:44:00,31.7,26.0,30.32,SE,143,2.0,5.0,78,0.00,,,0.00,weatherlink.com 1.10,2013-11-09 12:44:00,
2013-11-09 08:04:00,31.8,26.0,30.32,SSE,168,2.0,4.0,78,0.00,,,0.00,weatherlink.com 1.10,2013-11-09 13:04:00,
2013-11-09 08:22:00,32.1,26.0,30.32,South,171,1.0,5.0,78,0.00,,,0.00,weatherlink.com 1.10,2013-11-09 13:22:00,
2013-11-09 08:41:00,32.9,26.0,30.32,South,172,2.0,5.0,75,0.00,,,0.00,weatherlink.com 1.10,2013-11-09 13:41:00,
2013-11-09 09:00:00,34.9,27.0,30.32,SW,221,2.0,5.0,72,0.00,,,0.00,weatherlink.com 1.10,2013-11-09 14:00:00,
2013-11-09 09:20:00,36.4,27.0,30.31,SE,129,1.0,5.0,69,0.00,,,0.00,weatherlink.com 1.10,2013-11-09 14:20:00,
2013-11-09 09:39:00,37.4,27.0,30.30,South,170,2.0,5.0,66,0.00,,,0.00,weatherlink.com 1.10,2013-11-09 14:39:00,
2013-11-09 09:57:00,39.6,28.0,30.30,SW,231,3.0,5.0,64,0.00,,,0.00,weatherlink.com 1.10,2013-11-09 14:57:00,
2013-11-09 10:16:00,40.4,28.0,30.29,SE,130,1.0,4.0,62,0.00,,,0.00,weatherlink.com 1.10,2013-11-09 15:16:00,
2013-11-09 10:36:00,41.7,28.0,30.28,SSE,150,2.0,3.0,58,0.00,,,0.00,weatherlink.com 1.10,2013-11-09 15:36:00,
2013-11-09 10:55:00,43.2,29.0,30.26,SSW,192,1.0,6.0,58,0.00,,,0.00,weatherlink.com 1.10,2013-11-09 15:55:00,
2013-11-09 11:14:00,44.6,29.0,30.25,SW,221,4.0,7.0,53,0.00,,,0.00,weatherlink.com 1.10,2013-11-09 16:14:00,
2013-11-09 11:32:00,44.4,28.0,30.22,SW,225,2.0,5.0,53,0.00,,,0.00,weatherlink.com 1.10,2013-11-09 16:32:00,
2013-11-09 11:51:00,45.3,28.0,30.20,South,174,1.0,6.0,51,0.00,,,0.00,weatherlink.com 1.10,2013-11-09 16:51:00,
2013-11-09 12:11:00,47.4,28.0,30.18,West,270,5.0,9.0,46,0.00,,,0.00,weatherlink.com 1.10,2013-11-09 17:11:00,
2013-11-09 12:30:00,48.1,28.0,30.18,SW,234,0.0,6.0,45,0.00,,,0.00,weatherlink.com 1.10,2013-11-09 17:30:00,
2013-11-09 12:49:00,48.1,27.0,30.17,SSE,158,2.0,9.0,44,0.00,,,0.00,weatherlink.com 1.10,2013-11-09 17:49:00,
2013-11-09 13:07:00,47.6,27.0,30.16,SW,217,2.0,6.0,44,0.00,,,0.00,weatherlink.com 1.10,2013-11-09 18:07:00,
2013-11-09 13:26:00,47.7,26.0,30.14,SSE,167,2.0,5.0,43,0.00,,,0.00,weatherlink.com 1.10,2013-11-09 18:26:00,
2013-11-09 13:46:00,48.0,25.0,30.13,SW,236,3.0,7.0,41,0.00,,,0.00,weatherlink.com 1.10,2013-11-09 18:46:00,
2013-11-09 14:05:00,49.3,25.0,30.12,SW,235,2.0,6.0,39,0.00,,,0.00,weatherlink.com 1.10,2013-11-09 19:05:00,
2013-11-09 14:24:00,49.5,26.0,30.11,SSE,158,3.0,5.0,39,0.00,,,0.00,weatherlink.com 1.10,2013-11-09 19:24:00,
2013-11-09 14:43:00,49.0,25.0,30.11,SSE,162,3.0,6.0,39,0.00,,,0.00,weatherlink.com 1.10,2013-11-09 19:43:00,
2013-11-09 15:02:00,49.1,25.0,30.10,SSE,165,2.0,5.0,38,0.00,,,0.00,weatherlink.com 1.10,2013-11-09 20:02:00,
2013-11-09 15:21:00,49.6,24.0,30.09,South,172,2.0,4.0,37,0.00,,,0.00,weatherlink.com 1.10,2013-11-09 20:21:00,
2013-11-09 15:40:00,49.7,24.0,30.08,SSE,158,3.0,6.0,37,0.00,,,0.00,weatherlink.com 1.10,2013-11-09 20:40:00,
2013-11-09 15:59:00,49.9,23.0,30.06,SW,214,2.0,7.0,34,0.00,,,0.00,weatherlink.com 1.10,2013-11-09 20:59:00,
2013-11-09 16:19:00,50.3,22.0,30.06,South,188,2.0,8.0,32,0.00,,,0.00,weatherlink.com 1.10,2013-11-09 21:19:00,
2013-11-09 16:37:00,50.2,21.0,30.06,SSE,168,5.0,7.0,32,0.00,,,0.00,weatherlink.com 1.10,2013-11-09 21:37:00,
2013-11-09 16:56:00,50.7,20.0,30.06,WSW,258,2.0,8.0,30,0.00,,,0.00,weatherlink.com 1.10,2013-11-09 21:56:00,
2013-11-09 17:16:00,50.6,20.0,30.06,SSW,210,3.0,10.0,30,0.00,,,0.00,weatherlink.com 1.10,2013-11-09 22:16:00,
2013-11-09 17:35:00,50.4,18.0,30.06,SSW,210,6.0,12.0,28,0.00,,,0.00,weatherlink.com 1.10,2013-11-09 22:35:00,
2013-11-09 17:54:00,49.9,19.0,30.06,WSW,244,10.0,11.0,29,0.00,,,0.00,weatherlink.com 1.10,2013-11-09 22:54:00,
2013-11-09 18:13:00,49.7,19.0,30.07,SSW,200,3.0,13.0,29,0.00,,,0.00,weatherlink.com 1.10,2013-11-09 23:13:00,
2013-11-09 18:32:00,49.4,19.0,30.07,SW,236,7.0,10.0,30,0.00,,,0.00,weatherlink.com 1.10,2013-11-09 23:32:00,
2013-11-09 18:51:00,48.8,19.0,30.07,SW,219,6.0,9.0,31,0.00,,,0.00,weatherlink.com 1.10,2013-11-09 23:51:00,
2013-11-09 19:10:00,48.6,19.0,30.07,West,266,4.0,10.0,31,0.00,,,0.00,weatherlink.com 1.10,2013-11-10 00:10:00,
2013-11-09 19:29:00,48.4,20.0,30.07,South,186,2.0,9.0,32,0.00,,,0.00,weatherlink.com 1.10,2013-11-10 00:29:00,
2013-11-09 19:48:00,48.1,20.0,30.07,WSW,257,1.0,9.0,33,0.00,,,0.00,weatherlink.com 1.10,2013-11-10 00:48:00,
2013-11-09 20:07:00,48.3,20.0,30.06,West,281,5.0,10.0,33,0.00,,,0.00,weatherlink.com 1.10,2013-11-10 01:07:00,
2013-11-09 20:26:00,47.9,21.0,30.05,WSW,238,6.0,8.0,34,0.00,,,0.00,weatherlink.com 1.10,2013-11-10 01:26:00,
2013-11-09 20:46:00,48.0,20.0,30.05,West,271,5.0,14.0,33,0.00,,,0.00,weatherlink.com 1.10,2013-11-10 01:46:00,
2013-11-09 21:05:00,48.5,20.0,30.05,West,264,9.0,15.0,32,0.00,,,0.00,weatherlink.com 1.10,2013-11-10 02:05:00,
2013-11-09 21:24:00,49.0,20.0,30.05,West,268,9.0,15.0,32,0.00,,,0.00,weatherlink.com 1.10,2013-11-10 02:24:00,
2013-11-09 21:42:00,49.4,21.0,30.04,WSW,237,7.0,13.0,32,0.00,,,0.00,weatherlink.com 1.10,2013-11-10 02:42:00,
2013-11-09 22:01:00,49.4,21.0,30.04,WNW,282,5.0,14.0,33,0.00,,,0.00,weatherlink.com 1.10,2013-11-10 03:01:00,
2013-11-09 22:21:00,49.8,22.0,30.03,WSW,250,12.0,19.0,33,0.00,,,0.00,weatherlink.com 1.10,2013-11-10 03:21:00,
2013-11-09 22:40:00,49.7,23.0,30.04,SW,232,13.0,20.0,35,0.00,,,0.00,weatherlink.com 1.10,2013-11-10 03:40:00,
2013-11-09 22:59:00,49.3,23.0,30.02,WSW,245,11.0,15.0,36,0.00,,,0.00,weatherlink.com 1.10,2013-11-10 03:59:00,
2013-11-09 23:18:00,49.2,24.0,30.02,WSW,247,8.0,18.0,37,0.00,,,0.00,weatherlink.com 1.10,2013-11-10 04:18:00,
2013-11-09 23:37:00,48.7,25.0,30.01,WSW,255,10.0,15.0,39,0.00,,,0.00,weatherlink.com 1.10,2013-11-10 04:37:00,
2013-11-09 23:56:00,48.5,26.0,30.01,West,265,5.0,16.0,42,0.00,,,0.00,weatherlink.com 1.10,2013-11-10 04:56:00,